{"data":{"norad_id":66850,"epoch":"2026-05-25T01:26:21.642144Z","epoch_age_seconds":60106,"freshness":"FRESH","line1":"1 66850U 25281C   26145.05997271  .00018191  00000+0  66880-3 0  9991","line2":"2 66850  42.9980 272.3289 0001801 276.4829  83.5817 15.27586939 27860","mean_motion":15.27586939,"eccentricity":0.0001801,"inclination_deg":42.998,"raan_deg":272.3289,"arg_perigee_deg":276.4829,"mean_anomaly_deg":83.5817,"bstar":0.0006688,"rev_number":2786,"period_min":94.266320510875,"perigee_km":481.79262238219,"apogee_km":484.26401412983,"semimajor_km":6861.165318256,"source":"CELESTRAK","updated_at":"2026-05-25T13:38:21.340202Z"}}